Погода в Бруклине

США     42°20′39″N   75°10′14″W
темп.,
°C
ветер,
м/с
пор.,
м/с
влажн.,
%
обл.,
%
осадки,
мм/ч
давл.,
гПа
погр.,
м
17 октября, вс
вс1723:00+8зсз4119454 0.3 1009829
02:00+6з4119648 0.3 1009477
05:00+7зсз4119788 0.1 1009529
08:00+7з3109637 0.1 1010513
11:00+8з5883100 0.1 1010865
14:00+9зсз6108399 1.0 10091113
17:00+8зсз5117964 0.7 10091260
20:00+6зсз4128541 0.8 1011690
18 октября, пн
пн1823:00+6зсз4990100 0.1 1011713
02:00+6зсз1289100 0.4 101168
05:00+5ссв1192100 0.6 1011176
08:00+5з0195100 0.9 1011202
11:00+6сз3795100 1.6 1012953
14:00+7сз8118135 2.3 10121244
17:00+5сз61179100 0.2 10141465
20:00+4сз51186100 0.3 10151010
19 октября, вт
вт1923:00+4сз41288100 0.1 10161281
02:00+4сз5127826 0.1 10171154
05:00+2зсз312905 0.0 1018573
08:00+2зсз213955 0.0 1019450
11:00+9зсз613670 0.0 1017900
14:00+14зсз714614 0.0 10141337
17:00+14зсз714700 0.0 10131192
20:00+11з616830 0.0 1014764
20 октября, ср
ср2023:00+10зсз616870 0.0 1015742
02:00+10зсз5159415 0.0 1015679
05:00+10з4149771 0.0 1016614
08:00+10зсз4139672 0.0 1017592
11:00+14зсз5107520 0.0 1017844
14:00+17зсз69610 0.0 10161146
17:00+16зсз49725 0.0 1016899
20:00+11зюз22925 0.0 101715
21 октября, чт
чт2123:00+10юз22930 0.0 101713
02:00+9ююз22931 0.0 101717
05:00+8ю22935 0.0 101636
08:00+8ююв2592100 0.0 1016113
11:00+15юз612658 0.0 1015779
14:00+15юз41068100 0.0 1012683
17:00+14ююз51274100 0.1 1011735
20:00+13ююз51385100 0.6 1011728